    orbit => 73000,
    inclination => '19.9698',
    mm2 => 0,
    number => 11058,
    bstar => '0.00011468',
    id => 37841,
    argperigee => '200.5325',
    mm1 => '4.76e-06'
  },
  'CO-55' => {
    id => 27844,
    argperigee => '41.7305',
    mm1 => '5.19e-06',
    bstar => '0.00024427',
    number => 3031,
    mm2 => 0,
    orbit => 16367,
    inclination => '98.6767',
    meanmotion => '14.24164901',
    meananomaly => '318.4657',
    elset => 999,
    epoch => '25336.4731503',
    raan => '342.5087',
    eccentricity => '0.0010292'
  },
  'HYDRA-W' => {
    meanmotion => '15.39410474',
    epoch => '25336.69809803',
    elset => 999,
    meananomaly => '263.488',
    raan => '230.3482',
    eccentricity => '0.00114',
    id => 63490,
    argperigee => '96.7663',
    mm1 => '0.00078502',
    bstar => '0.0019861',
    mm2 => 0,
    number => 25052,
    inclination => '97.4078',
    orbit => 4017
  },
  'PROX-1' => {
    eccentricity => '0.000618',
    raan => '343.4962',
    meanmotion => '14.84768533',
    elset => 999,
    meananomaly => '82.1189',
    epoch => '25336.35960198',
    orbit => 34412,
    inclination => '23.9975',
    mm2 => 0,
    number => 19036,
    bstar => '0.0021463',
    id => 44339,
    argperigee => '277.8607',
    mm1 => '0.00018937'
  },
  'FLORIPASAT-1' => {
    bstar => '0.00072516',
    id => 44885,
    argperigee => '8.4679',
    mm1 => '9.225e-05',
    inclination => '97.8061',
    orbit => 32316,
    number => 19093,
    mm2 => 0,
    meanmotion => '15.01047508',
    epoch => '25336.84534568',
    meananomaly => '351.6735',
    elset => 999,
    eccentricity => '0.0011364',
    raan => '64.9925'
  },
  'SNUGLITE-2' => {
    eccentricity => '0.0006402',
    raan => '117.4116',
    elset => 999,
    meananomaly => '78.1862',
    epoch => '25336.82232071',
    meanmotion => '14.63788559',
    orbit => 18226,
    inclination => '98.1923',
    number => 22065,
    mm2 => 0,
    bstar => '0.0003629',
    argperigee => '281.8622',
    mm1 => '1.845e-05',
    id => 52899
  },
  'CAS-2T' => {
    epoch => '25336.78467983',
    elset => 999,
    meananomaly => '355.1389',
    meanmotion => '14.44093882',
    raan => '49.6218',
    eccentricity => '0.0344029',
    argperigee => '5.3317',
    mm1 => '1.356e-05',
    id => 41847,
    bstar => '0.00020009',
    mm2 => 0,
    number => 16066,
    inclination => '98.405',
    orbit => 47644
  },
  'TAURUS-1' => {
    eccentricity => '0.000917',
    raan => '125.1354',
    meanmotion => '14.68872874',
    epoch => '25336.82680464',
    elset => 999,
    meananomaly => '155.582',
    inclination => '98.6218',
    orbit => 32978,
    number => 19059,
    mm2 => 0,
    bstar => '0.0020455',
    id => 44530,
    mm1 => '0.00011928',
    argperigee => '204.4949'
  },
  'RS-38S' => {
    meanmotion => '15.28881926',
    elset => 999,
    meananomaly => '304.9986',
    epoch => '25336.89021492',
    eccentricity => '0.0009458',
    raan => '38.166',
    bstar => '0.00071121',
    id => 57189,
    argperigee => '55.2142',
    mm1 => '0.00019937',
    orbit => 13462,
    inclination => '97.5388',
    mm2 => 0,
    number => 23091
  },
  'CO-58' => {
    bstar => '0.00044825',
    argperigee => '108.9643',
    mm1 => '2.756e-05',
    id => 28895,
    inclination => '98.2716',
    orbit => 7279,
    number => 5043,
    mm2 => 0,
    epoch => '25336.38036176',
    elset => 999,
    meananomaly => '251.3231',
    meanmotion => '14.71830708',
    eccentricity => '0.001538',
    raan => '123.2835'
  },
  CATSAT => {
    eccentricity => '0.0033899',
    raan => '184.3594',
    epoch => '25336.86325324',
    meananomaly => '179.7775',
    elset => 999,
    meanmotion => '15.39471498',
    inclination => '97.2334',
    orbit => 7700,
    number => 24125,
    mm2 => 0,
    bstar => '0.0011395',
    argperigee => '180.3454',
    mm1 => '0.00045707',
    id => 60246
  },
  'TEVEL2-7' => {
    id => 63238,
    argperigee => '109.0297',
    mm1 => '0.00020913',
    bstar => '0.00085175',
    number => 25052,
    mm2 => 0,
    orbit => 4000,
    inclination => '97.4154',
    meanmotion => '15.24472124',
    meananomaly => '251.1914',
    elset => 999,
    epoch => '25336.64272361',
    raan => '228.0392',
    eccentricity => '0.0008984'
  },
  'LAPAN-A3' => {
    epoch => '25336.89407288',
    meananomaly => '350.1521',
    elset => 999,
    meanmotion => '15.314291',
    raan => '334.8101',
    eccentricity => '0.0010906',
    argperigee => '9.9936',
    mm1 => '5.207e-05',
    id => 41603,
    bstar => '0.00017372',
    number => 16040,
    mm2 => 0,
    inclination => '97.1423',
    orbit => 52475
  },
  'GO-32' => {
    meanmotion => '14.24372378',
    elset => 999,
    meananomaly => '286.0542',
    epoch => '25336.59139907',
    eccentricity => '0.0002253',
    raan => '319.5698',
    bstar => '8.2024e-05',
    id => 25397,
    mm1 => '1.43e-06',
    argperigee => '74.0884',
    orbit => 42334,
    inclination => '98.9913',
    number => 98043,
    mm2 => 0
  },
  'TEVEL2-6' => {
    bstar => '0.00088476',
    argperigee => '83.5456',
    mm1 => '0.00023007',
    id => 63215,
    inclination => '97.4114',
    orbit => 4004,
    mm2 => 0,
    number => 25052,
    epoch => '25336.63520355',
    elset => 999,
    meananomaly => '276.6386',
    meanmotion => '15.26398173',
    eccentricity => '0.0005307',
    raan => '228.5153'
  },
  'GHS-01' => {
    bstar => '0.0014391',
    id => 65733,
    argperigee => '215.3541',
    mm1 => '0.00180652',
    inclination => '51.628',
    orbit => 1162,
    mm2 => 0,
    number => 98067,
    meanmotion => '15.70056093',
    epoch => '25336.83887637',
    elset => 999,
    meananomaly => '144.6993',
    eccentricity => '0.0006994',
    raan => '185.9293'
  },
  'CURIUM-ONE' => {
    epoch => '25336.85437816',
    elset => 999,
    meananomaly => '269.0181',
    meanmotion => '15.08596665',
    raan => '179.2427',
    eccentricity => '0.0056481',
    mm1 => '0.00010914',
    argperigee => '91.7383',
    id => 60242,
    bstar => '0.00068189',
    number => 24128,
    mm2 => 0,
    inclination => '61.9785',
    orbit => 7679
  },
  TUBIN => {
    elset => 999,
    meananomaly => '71.4341',
    epoch => '25336.82778128',
    meanmotion => '16.01296426',
    eccentricity => '0.0003315',
    raan => '163.7455',
    bstar => '0.00098404',
    argperigee => '288.6577',
    mm1 => '0.00535834',
    id => 48900,
    orbit => 24773,
    inclination => '97.6676',
    number => 21059,
    mm2 => '0.0001306'
  },
  'TEVEL2-4' => {
    raan => '228.5901',
    eccentricity => '0.0005189',
    epoch => '25336.68877976',
    elset => 999,
    meananomaly => '278.1449',
    meanmotion => '15.26517468',
    number => 25052,
    mm2 => 0,
    inclination => '97.4115',
    orbit => 4005,
    argperigee => '82.0378',
    mm1 => '0.00022996',
    id => 63213,
    bstar => '0.00088117'
  },
  DRAGONFLY => {
    bstar => '0.0012965',
    id => 65729,
    argperigee => '216.4679',
    mm1 => '0.00149213',
    inclination => '51.6253',
    orbit => 1160,
    number => 98067,
    mm2 => 0,
    meanmotion => '15.68060646',
    epoch => '25336.80835911',
    elset => 999,
    meananomaly => '143.5877',
    eccentricity => '0.0006468',
    raan => '186.4705'
  },
  'MINXSS-2' => {
    elset => 999,
    meananomaly => '110.2986',
    epoch => '25336.77578126',
    meanmotion => '15.33733369',
    eccentricity => '0.0008819',
    raan => '44.0106',
    bstar => '0.00096129',
    argperigee => '249.7308',
    mm1 => '0.00031406',
    id => 43758,
    orbit => 38389,
    inclination => '97.4822',
    number => 18099,
    mm2 => 0
  },
  'LILACSAT-2' => {
    epoch => '25336.82361742',
    elset => 999,
    meananomaly => '120.8359',
    meanmotion => '15.44267537',
    raan => '1.9042',
    eccentricity => '0.0006368',
    argperigee => '239.2262',
    mm1 => '0.0001925',
    id => 40908,
    bstar => '0.00041975',
    mm2 => 0,
    number => 15049,
    inclination => '97.4925',
    orbit => 56537
  },
  'ZACUBE-1' => {
    bstar => '0.00059984',
    id => 39417,
    argperigee => '178.8349',
    mm1 => '7.325e-05',
    inclination => '97.8058',
    orbit => 65129,
    number => 13066,
    mm2 => 0,
    meanmotion => '14.98927019',
    epoch => '25336.84577973',
    meananomaly => '181.2977',
    elset => 999,
    eccentricity => '0.0041402',
    raan => '293.3759'
  },
  'SUOMI-100' => {
    inclination => '97.4507',
    orbit => 38347,
    mm2 => 0,
    number => 18099,
    bstar => '0.0007374',
    id => 43804,
    argperigee => '250.4642',
    mm1 => '0.00017262',
    eccentricity => '0.0009823',
    raan => '33.3417',
    meanmotion => '15.22895379',
    epoch => '25336.80097207',
    elset => 999,
    meananomaly => '109.5534'
  },
  TECHNOSAT => {
    meananomaly => '314.1735',
    elset => 999,
    epoch => '25336.67788529',
    meanmotion => '15.03273206',
    raan => '137.3192',
    eccentricity => '0.0018936',
    argperigee => '46.1051',
    mm1 => '5.675e-05',
    id => 42829,
    bstar => '0.0004213',
    number => 17042,
    mm2 => 0,
    orbit => 45716,
    inclination => '97.4013'
  },
  'ROBUSTA-3A' => {
    epoch => '25336.85349894',
    elset => 999,
    meananomaly => '271.5837',
    meanmotion => '15.07986181',
    raan => '180.7354',
    eccentricity => '0.0056413',
    argperigee => '89.172',
    mm1 => '9.733e-05',
    id => 60243,
    bstar => '0.00062012',
    number => 24128,
    mm2 => 0,
    inclination => '61.986',
    orbit => 7677
  },
  'SO-50' => {
    bstar => '0.00034092',
    argperigee => '298.4362',
    mm1 => '2.705e-05',
    id => 27607,
    orbit => 23534,
    inclination => '64.5547',
    number => 2058,
    mm2 => 0,
    meananomaly => '60.9527',
    elset => 999,
    epoch => '25336.82084867',
    meanmotion => '14.82322703',
    eccentricity => '0.0071739',
    raan => '16.2545'
  },
  'AO-73' => {
    meanmotion => '15.05696235',
    meananomaly => '212.591',
    elset => 999,
